Regional Weather Roundup
Issued by NWS Northern Indiana

Home | Current Version | Previous Version | Graphics & Text | Print | Product List | Glossary On
Versions: 1 2 3 4 5 6 7 8 9 10 11 12 13 14 15 16 17 18 19 20 21 22 23 24 25 26 27 28 29 30 31 32 33 34 35 36 37 38 39 40 41 42 43 44 45 46 47 48 49 50
000
ASUS43 KIWX 222200
RWRIWX

KIWX WEATHER ROUNDUP
NATIONAL WEATHER SERVICE NORTHERN INDIANA
500 PM EST MON JAN 22 2018

NOTE: "FAIR" INDICATES FEW OR NO CLOUDS BELOW 12,000 FEET WITH NO
SIGNIFICANT WEATHER AND/OR OBSTRUCTIONS TO VISIBILITY.

* THESE STATIONS ARE NOT UNDER NWS QUALITY CONTROL. THEY ALSO MAY NOT
  REPORT WEATHER SUCH AS PRECIPITATION OR FOG.

INZ001>027-222300-
NORTHERN INDIANA

CITY           SKY/WX    TMP DP  RH WIND       PRES   REMARKS
GARY*          MOCLDY    55  46  71 S14       29.47F
KNOX*          CLOUDY    52  48  87 S20G28    29.51F
SOUTH BEND     LGT RAIN  50  48  93 S16       29.53F
ELKHART*       DRIZZLE   50  48  93 S7G17     29.54S FOG
GOSHEN         LGT RAIN  51  48  89 S16       29.55R FOG
MONTICELLO*    MOCLDY    52  50  92 S12G18    29.50F
FORT WAYNE     CLOUDY    54  49  83 S18       29.58S
PERU/GRISSOM   MOCLDY    52  52 100 S13       29.56R

$$
INZ028>050-222300-
CENTRAL INDIANA

CITY           SKY/WX    TMP DP  RH WIND       PRES   REMARKS
LAFAYETTE      FAIR      53  49  86 S13G21    29.51S
MUNCIE*        CLOUDY    55  48  77 S15G25    29.59S
INDIANAPOLIS   MOCLDY    54  49  83 S16       29.57F

$$
MIZ043>046-050>051-056>058-064>065-071>073-077>080-222300-
SOUTHWEST LOWER MICHIGAN

CITY           SKY/WX    TMP DP  RH WIND       PRES   REMARKS
BATTLE CREEK   LGT RAIN  51  48  89 S13       29.56R FOG
BENTON HARBOR  CLOUDY    52  48  86 S8        29.52S
COLDWATER*     CLOUDY    52  49  90 S9        29.57R
HILLSDALE*     CLOUDY    50  45  81 S13G18    29.57F
HOLLAND        LGT RAIN  49  47  93 S7        29.52S FOG
GRAND RAPIDS   LGT RAIN  43  42  97 E5        29.54S VSB 3/4
KALAMAZOO      LGT RAIN  50  48  93 S13       29.55S FOG
STURGIS*       DRIZZLE   52  49  90 S13G22    29.56R
THREE RIVERS*  DRIZZLE   51  48  90 S10       29.55S

$$
OHZ001>008-015>018-024>025-222300-
NORTHWEST OHIO

CITY           SKY/WX    TMP DP  RH WIND       PRES   REMARKS
DEFIANCE       CLOUDY    53  46  77 S17G25    29.60F
FINDLAY        LGT RAIN  53  45  74 S17G28    29.64S
TOLEDO EXPRESS CLOUDY    54  49  83 S12G24    29.62F
TOLEDO METCALF CLOUDY    53  47  79 S17       29.64F
LIMA           CLOUDY    53  48  83 S18G28    29.63F

$$
AND FOR LAKE MICHIGAN COASTAL AND OPEN LAKE BUOY OBSERVATIONS

STATION/POSITION TEMP    WIND        PRES    VSBY  WAVE
                 AIR SEA DIR/SP/G                  HT/PER
                 (F)     (DEG/KT/KT) (MB)    (MI)  (FT/S)
CALUMET HARBOR    53     170/ 15/ 21  997.2F
MICHIGAN CITY     52     170/ 16/ 20   N/A
BURNS HARBOR      53     190/ 18/ 23  999.0F
SAINT JOSEPH      52     200/ 11/ 16 1000.3

$$
&&




USA.gov is the U.S. government's official web portal to all federal, state and local government web resources and services.